Back to catalog

STARLINK-6098

AliveCommunicationsVLEO
NORAD 56906·PAYLOAD·🇺🇸 United States

Launched Jun 12, 2023 from Cape Canaveral Space Force Station

Loading…

Next Passes (next 24 hours)

TLE

FreshSource: CelesTrak SupGP

Epoch: Sep 15, 2026, 01:50 UTC

1 56906C 23083AG  26258.07687500  .00005193  00000+0  18806-3 0  2589
2 56906  43.0009  80.8503 0001530 256.9879 175.5651 15.27579963    18

Track STARLINK-6098 in real time with AllMySat

Download on the App Store